Temperature
25 24 23 23 21 19 20 21 22 21 21 21 21 20 19 19 19 18 19 18 18 18 18 18 18 18 18 18 18 18 18 18 18 18 18 18 18 18 18 18 18 18 18 18 18 17 17 17 17
25 24 24 23 20 19 20 22 21 21 21 22 21 20 19 18 18 19 19 18 18 18 18 18 18 18 18 18 18 18 18 18 18 18 18 18 18 18 18 18 18 18 18 18 18 17 17 17 17
25 25 24 20 20 20 21 22 21 22 22 22 21 20 19 19 19 19 19 19 19 19 18 18 18 18 18 18 18 18 18 18 18 18 18 18 18 18 18 18 18 18 18 18 18 17 17 17 17
25 25 24 21 22 22 22 22 22 22 22 22 21 20 19 19 20 19 19 19 19 19 18 18 18 18 18 18 18 18 18 18 18 18 18 18 18 18 18 18 18 18 18 17 17 17 17 17 17
26 25 21 21 22 23 23 23 23 22 21 21 21 19 19 19 20 20 19 19 19 19 18 18 18 18 18 18 18 18 18 18 18 18 18 18 18 18 18 18 18 18 18 17 17 17 17 17 17
26 22 20 21 23 23 23 23 22 21 21 21 20 19 19 19 20 19 19 19 19 19 19 18 18 18 18 18 18 18 18 18 18 18 18 18 18 18 18 18 18 17 17 17 17 17 17 17 17
25 21 21 22 22 23 23 23 22 21 21 21 21 19 19 19 19 19 19 19 19 19 19 18 18 18 18 18 18 18 18 18 18 18 18 18 18 18 18 18 18 17 17 17 17 17 17 17 17
27 21 22 22 23 23 23 23 22 22 22 21 21 19 19 19 19 19 19 19 19 19 19 18 18 18 18 18 18 18 18 18 18 18 18 18 18 18 18 18 18 17 17 17 17 17 17 17 17
27 21 22 23 23 23 23 23 23 23 22 22 22 21 21 20 19 19 19 19 19 19 19 19 19 18 18 18 18 18 18 18 18 18 18 18 18 18 18 18 17 17 17 17 17 17 17 17 17
26 22 24 24 23 23 23 23 23 22 22 21 21 21 20 20 20 19 19 19 19 19 19 19 19 18 18 18 18 18 18 18 18 18 18 18 18 18 18 18 17 17 17 17 17 17 17 17 17
26 24 24 25 25 24 23 23 23 22 21 21 21 21 20 20 20 20 19 19 19 19 19 19 19 18 18 18 18 18 18 18 18 18 18 18 18 18 17 17 18 17 17 17 17 17 17 17 17
25 25 25 25 25 24 24 23 22 22 22 23 22 21 21 20 20 20 20 19 19 19 19 19 19 18 18 18 18 18 18 18 18 18 17 18 18 18 17 17 17 17 17 17 17 17 17 17 17
26 25 25 25 25 24 24 23 23 22 23 22 22 21 21 21 20 20 20 19 19 19 19 19 19 19 18 18 18 18 18 18 18 17 17 17 17 17 17 17 17 17 17 17 17 17 17 17 17
25 25 24 25 25 24 23 23 22 22 22 22 22 21 21 21 21 20 20 20 19 19 19 19 19 19 18 18 18 18 18 17 17 17 17 17 17 17 17 17 17 17 17 17 17 17 17 17 17
26 24 24 24 24 24 24 23 22 22 22 22 21 21 21 21 21 20 20 20 20 19 19 19 19 18 18 18 18 18 18 17 17 17 17 17 17 17 17 17 17 17 17 17 17 17 17 17 17
25 23 23 24 24 24 23 22 22 23 22 22 21 21 21 21 21 21 20 20 20 19 19 19 19 18 18 18 18 18 18 17 17 17 17 17 17 17 17 17 17 17 17 17 17 17 17 17 17
24 23 24 24 24 24 23 22 22 22 22 21 21 21 21 21 21 21 20 20 20 20 19 19 18 18 18 18 18 18 17 17 17 17 17 17 17 17 17 17 17 17 17 17 17 17 17 17 17
24 24 24 24 24 23 22 22 22 22 22 21 21 21 21 21 21 21 21 20 20 20 19 19 19 18 18 18 18 18 18 17 17 17 17 17 17 17 17 17 17 17 17 17 17 17 17 17 17
25 24 24 24 24 23 22 22 22 22 22 21 21 21 21 21 21 21 21 20 20 20 19 19 19 19 18 18 18 18 18 17 17 17 17 17 17 17 17 17 17 17 17 17 17 17 17 17 17
25 25 24 24 24 24 22 22 22 22 22 22 22 22 22 22 21 21 21 21 20 20 20 19 19 19 19 18 18 18 18 18 17 17 17 17 17 17 17 17 17 17 17 17 17 17 17 17 17
25 25 24 24 23 23 23 23 22 22 22 22 22 23 23 22 22 22 21 21 21 20 20 20 19 19 19 19 18 18 18 18 18 17 17 17 17 17 17 17 17 17 17 17 17 17 17 17 17
25 26 25 24 23 21 23 22 22 21 21 21 22 22 23 23 23 22 22 21 21 21 20 20 20 19 19 19 18 18 18 18 18 18 17 17 17 17 17 17 17 17 17 17 17 17 17 17 17
26 25 24 23 21 21 21 22 21 21 21 21 22 22 23 23 23 22 22 22 22 21 21 20 20 19 19 19 19 18 18 18 18 18 17 17 17 17 17 17 17 17 17 17 17 17 17 17 17
24 23 22 20 20 22 22 22 21 20 21 22 22 23 23 23 23 23 22 22 22 21 21 21 20 20 20 19 19 19 19 18 18 18 18 17 17 17 17 17 17 17 17 17 16 16 17 17 16
24 22 21 22 21 21 21 21 21 22 21 22 22 23 23 23 23 23 23 23 22 22 21 21 21 20 20 20 19 19 19 18 18 18 18 17 17 17 17 17 17 17 17 16 16 16 16 16 16
24 22 22 22 22 21 21 21 22 22 23 23 24 24 23 23 23 23 23 23 23 22 22 21 21 21 20 20 20 19 19 19 18 18 18 17 17 17 17 17 17 17 17 16 16 16 16 16 16
24 22 21 20 21 21 21 21 22 22 22 22 22 23 23 24 24 24 23 23 23 23 22 22 21 21 20 20 20 19 19 19 18 18 18 17 17 17 17 17 17 17 16 16 16 16 16 16 16
23 20 19 19 21 22 23 22 22 23 22 21 21 22 23 24 24 24 24 23 23 23 22 22 21 21 21 20 20 19 19 19 18 18 18 17 17 17 17 17 17 16 16 16 16 16 16 16 16
23 21 18 17 19 20 22 22 22 22 22 21 21 23 24 24 24 24 24 24 23 23 22 22 22 21 21 20 20 19 19 19 18 18 18 18 17 17 17 16 16 16 16 16 16 16 16 16 16
24 22 19 21 20 18 20 22 23 21 22 22 23 24 24 25 25 24 24 24 23 23 23 22 22 21 21 20 20 19 19 19 18 18 18 17 17 17 17 16 16 16 16 16 16 16 15 15 15
Wind_Speed
10 9 4 2 6 7 5 5 2 4 4 4 8 8 7 5 3 4 0 5 5 4 4 8 9 10 10 10 11 11 12 12 12 13 13 13 14 14 15 15 15 16 16 16 16 16 16 16 16
7 6 2 4 6 5 4 3 4 4 5 5 7 7 7 5 4 6 3 4 5 5 5 7 9 9 10 10 10 11 11 12 12 12 12 13 13 14 14 14 14 15 15 15 15 15 15 15 15
6 3 4 5 5 4 3 2 6 6 4 3 5 6 5 4 4 4 4 6 6 5 4 6 9 9 9 10 10 10 11 11 11 12 12 12 12 13 13 13 13 13 14 14 14 14 13 13 13
3 3 5 6 5 1 4 5 6 6 5 6 5 6 4 3 4 5 8 7 6 4 4 6 9 9 9 9 9 10 10 10 11 11 11 11 11 12 12 12 12 12 12 13 13 13 12 12 12
3 5 7 5 4 3 4 4 3 5 4 5 6 6 4 4 7 10 8 7 6 3 3 5 8 8 8 8 9 9 9 10 10 10 10 11 11 11 11 11 11 11 11 11 11 11 11 11 11
4 5 6 3 3 4 4 4 5 8 6 5 5 5 3 3 6 7 7 6 4 3 3 4 7 7 7 8 8 8 9 9 9 9 10 9 9 10 10 10 10 10 10 10 10 10 10 10 10
5 5 5 4 4 3 3 3 4 6 6 4 4 5 2 2 4 6 6 5 4 3 3 3 4 5 6 7 8 8 8 8 8 8 8 8 8 8 8 9 9 9 9 9 9 8 8 8 9
5 5 5 3 5 3 5 4 4 6 5 5 5 6 5 5 6 7 6 5 4 3 2 2 3 3 4 4 6 7 7 7 7 7 7 7 7 7 7 7 7 8 8 8 8 7 7 7 7
4 5 4 6 7 5 6 5 4 4 6 3 3 5 6 11 10 8 5 3 2 2 1 1 2 2 3 3 4 5 6 6 6 5 6 6 5 5 5 5 6 6 6 7 6 6 6 5 6
5 4 6 5 7 7 7 6 5 5 4 3 6 7 11 12 10 8 7 6 4 4 2 1 1 1 1 2 3 3 3 4 4 4 4 5 4 3 3 3 4 4 4 5 5 5 5 5 5
4 5 3 4 6 9 8 5 4 8 3 5 9 12 13 11 9 7 7 6 6 4 4 3 3 2 2 1 2 2 2 3 2 2 2 3 3 3 3 3 3 3 3 3 4 4 3 3 3
4 2 5 6 7 7 7 5 5 4 4 7 12 14 12 12 10 9 8 6 5 4 4 4 4 3 3 2 1 2 2 1 1 1 1 2 1 1 1 1 2 2 2 3 2 2 2 2 2
5 4 5 8 10 8 8 6 5 1 4 9 12 11 11 11 9 7 6 5 4 5 5 4 4 4 3 3 2 2 2 2 2 1 1 2 1 1 0 1 1 1 1 1 1 1 2 1 1
6 8 8 7 8 4 7 4 4 2 6 9 10 9 9 10 9 7 6 5 5 5 5 4 4 4 4 2 2 2 2 2 2 2 3 3 2 1 1 0 0 1 1 0 1 1 1 1 1
8 10 8 5 4 4 7 3 2 5 9 9 8 7 7 7 7 8 8 6 6 5 4 4 4 3 3 3 3 2 2 2 2 2 3 3 2 2 1 1 0 1 1 0 1 1 1 1 1
6 7 3 1 3 3 6 3 4 6 9 8 7 7 6 6 6 6 6 5 5 4 4 4 4 4 3 3 2 2 2 2 2 2 2 3 3 3 2 1 1 1 0 1 1 1 1 1 1
5 3 3 2 3 4 4 4 4 7 8 8 7 6 6 5 4 5 6 6 6 5 5 4 3 4 3 2 2 2 1 1 1 1 2 2 2 3 3 2 1 0 1 1 1 1 1 1 1
5 4 4 5 3 4 4 4 4 7 8 7 6 5 5 6 6 6 6 6 5 4 4 4 3 3 3 2 2 2 1 0 1 1 2 3 2 3 3 2 1 1 1 1 1 1 1 1 1
7 6 4 4 3 4 4 3 4 7 7 7 7 7 7 6 5 5 5 5 5 4 4 3 3 3 3 2 2 1 1 0 0 1 3 3 3 3 3 1 1 1 1 2 2 1 1 1 1
5 5 3 1 2 4 2 2 3 6 8 8 9 9 8 7 5 6 6 5 5 5 4 4 4 3 3 2 2 2 1 1 1 1 1 2 2 3 2 2 1 1 1 2 2 2 2 1 1
2 6 6 5 4 4 3 4 2 3 4 5 7 8 8 10 9 8 7 7 6 5 5 5 4 4 3 3 2 2 2 2 1 1 1 1 2 2 2 2 2 2 2 3 3 3 4 2 1
2 4 6 7 6 1 2 2 6 4 4 6 8 8 9 9 9 9 9 8 7 7 5 4 4 4 3 3 3 3 2 1 1 1 1 1 0 1 1 2 2 2 2 3 3 3 3 3 3
3 4 7 6 6 3 3 1 7 1 6 9 9 10 10 10 10 10 10 9 8 7 6 5 4 3 3 4 4 3 2 1 1 0 1 1 1 1 1 1 1 1 2 2 2 2 3 3 3
7 9 9 7 5 1 2 2 7 5 7 6 7 9 10 10 10 9 8 7 7 6 6 5 5 4 4 4 4 4 3 2 1 0 0 1 1 1 1 0 1 1 1 2 2 2 3 3 3
6 7 5 4 4 5 2 3 9 8 7 7 7 9 9 9 10 10 9 9 9 8 7 6 6 5 4 4 4 4 4 3 2 2 1 1 1 1 1 0 0 0 1 1 1 1 1 2 2
4 9 8 6 5 4 2 5 8 7 5 5 5 6 8 8 9 10 11 10 10 10 9 8 7 6 5 5 4 3 3 2 2 2 1 1 1 1 1 0 0 0 0 0 0 0 0 0 1
6 4 7 7 3 0 5 7 8 3 1 2 4 6 8 9 9 9 9 10 10 10 10 10 8 6 5 5 4 3 3 3 2 2 1 1 1 1 0 0 1 1 1 1 1 1 1 1 0
6 10 7 7 6 2 5 5 5 6 6 4 6 7 8 7 7 8 8 8 8 8 8 8 8 7 6 5 5 4 3 3 2 2 1 1 0 0 1 1 1 1 2 2 2 2 2 2 1
5 5 6 6 6 7 3 7 7 9 8 9 9 9 9 9 8 8 7 7 7 7 8 8 7 7 6 5 4 4 3 3 3 2 2 1 1 1 1 1 1 2 2 2 2 2 2 2 2
5 8 8 6 5 5 5 8 6 7 7 8 8 7 7 7 7 6 7 7 7 7 7 7 7 7 6 6 5 5 4 3 3 2 2 1 1 1 2 2 2 2 2 2 2 2 2 3 2
Wind_Direction
149 146 138 99 56 50 34 6 45 58 53 54 70 76 80 60 77 130 106 121 117 109 112 116 113 107 103 100 98 97 95 94 96 97 97 97 99 100 100 101 102 103 104 106 108 109 112 113 114
144 148 111 61 73 65 12 3 66 72 129 122 75 70 70 62 64 106 119 129 116 119 115 121 116 111 107 104 101 100 98 96 96 98 101 101 100 100 100 100 101 102 103 105 108 110 111 112 115
152 145 84 69 80 124 138 108 109 101 90 70 71 62 71 91 120 140 155 131 113 117 124 134 121 114 111 107 104 102 101 99 98 99 102 102 102 102 101 100 100 102 104 105 108 109 110 111 115
129 62 56 67 66 111 148 151 131 112 63 50 79 63 59 85 139 139 131 127 121 120 134 141 127 120 114 111 109 105 104 102 102 101 102 104 105 105 104 103 101 102 104 106 108 109 110 111 114
73 76 60 53 42 54 106 135 97 92 73 61 75 77 43 26 101 119 128 129 131 126 135 144 131 126 122 117 113 109 109 108 106 105 105 107 107 106 106 106 104 102 105 107 108 110 111 111 116
64 68 78 80 63 68 93 89 89 86 89 82 78 82 45 80 110 127 125 122 125 124 122 132 134 132 127 122 117 112 111 109 107 108 107 107 107 108 107 107 107 106 106 109 109 109 109 108 112
100 89 113 123 108 108 137 98 106 115 107 104 105 89 82 134 133 123 110 104 103 106 101 100 117 125 125 124 122 118 113 110 108 109 109 108 109 111 110 110 110 109 107 108 108 107 104 102 109
118 97 95 120 132 144 137 105 112 118 112 127 115 129 171 183 131 111 97 90 90 86 81 87 89 92 97 112 123 121 117 112 109 108 109 109 108 108 110 110 111 110 108 106 105 105 104 101 107
93 80 146 174 158 150 137 124 141 93 115 127 104 140 156 138 127 118 110 105 134 155 101 95 99 97 97 109 124 120 118 114 106 103 108 96 79 79 88 106 115 116 113 109 106 105 105 99 104
85 125 197 185 159 140 134 129 142 110 113 86 79 93 124 136 143 149 158 169 185 193 200 184 153 141 130 125 104 101 98 97 90 82 86 85 79 70 69 79 106 116 114 110 105 100 94 86 90
106 154 166 119 126 122 122 120 107 124 153 173 150 144 145 150 157 167 179 183 194 195 201 193 192 183 159 118 112 109 90 79 77 71 85 88 68 48 39 31 36 45 66 76 79 77 78 88 94
101 74 117 121 114 116 128 121 105 145 199 159 148 149 153 163 173 181 189 194 188 185 201 197 186 179 180 169 153 145 126 102 79 11 97 116 82 36 22 12 18 31 46 60 54 66 76 90 107
82 80 82 103 103 107 105 110 122 108 122 127 135 144 159 173 181 184 184 185 187 194 202 196 178 179 180 178 190 172 183 177 203 221 200 170 150 161 341 325 340 2 37 77 54 52 58 52 68
101 85 81 88 95 97 106 95 93 149 131 134 145 158 170 179 177 170 173 184 194 205 205 195 185 186 176 181 191 201 204 200 210 223 218 196 178 170 158 178 302 308 300 150 104 81 70 60 99
93 83 62 54 88 113 105 71 189 175 144 152 165 171 175 179 174 179 183 187 192 198 197 193 192 185 184 188 199 202 205 197 208 228 219 196 185 179 173 189 267 277 274 126 85 78 86 97 101
67 73 87 261 124 135 123 200 219 167 154 169 180 184 186 187 183 186 179 179 182 183 182 192 190 174 181 185 186 175 173 188 223 232 215 197 190 190 177 176 272 285 269 113 107 112 107 90 104
46 121 173 214 185 146 148 210 204 171 170 184 191 194 191 188 190 186 178 175 177 181 178 177 172 163 167 162 147 137 143 173 219 217 222 219 204 196 180 175 234 221 144 154 160 116 142 156 172
198 181 190 201 199 151 176 218 188 176 183 195 195 198 197 196 204 186 177 172 171 171 168 169 159 150 142 121 104 87 83 55 223 216 225 220 209 196 180 173 207 175 150 163 140 137 132 154 160
167 163 188 215 173 148 195 219 207 185 189 198 199 202 206 207 199 171 171 163 158 163 161 169 169 164 142 124 132 137 190 235 272 248 237 227 216 199 181 182 193 182 186 198 177 150 139 119 120
144 149 156 63 111 141 176 265 233 196 202 202 201 204 203 198 183 175 171 166 174 183 181 179 182 172 168 160 149 154 146 175 219 278 280 227 217 210 196 185 203 203 188 191 181 167 167 184 148
147 170 176 159 94 66 76 334 267 233 208 209 206 202 198 196 192 186 182 181 179 189 193 191 184 176 175 160 121 91 70 41 28 2 320 266 215 217 214 210 198 202 193 207 208 187 180 192 210
223 214 149 132 114 35 102 266 283 246 239 223 216 203 202 200 186 183 184 186 191 193 188 181 174 170 169 154 144 143 149 180 242 257 273 312 21 254 239 221 206 197 193 208 220 202 194 183 205
163 89 102 99 100 59 30 127 285 286 246 240 223 210 204 197 187 184 187 190 190 182 177 176 167 166 161 153 156 150 158 195 238 328 352 2 4 354 306 241 209 202 200 211 222 214 206 198 199
115 72 61 52 67 23 251 170 279 240 225 235 219 207 199 191 188 185 182 175 176 171 169 167 164 168 159 156 158 164 173 187 184 236 357 341 336 334 336 297 197 198 207 221 228 223 216 214 208
94 94 54 19 8 255 255 200 252 254 233 222 219 206 193 184 180 179 177 179 180 178 177 171 168 177 169 162 171 179 184 181 191 212 223 247 297 301 314 307 165 186 234 228 228 216 229 219 213
158 136 152 178 213 265 305 238 256 269 254 223 205 189 179 178 180 184 188 186 185 183 178 174 176 183 176 173 182 183 178 183 205 211 211 228 253 271 281 172 165 144 173 100 78 58 257 172 209
134 138 149 126 133 55 281 286 300 290 262 195 175 171 183 187 185 187 187 185 184 183 182 180 180 183 182 179 172 173 176 181 195 200 207 240 272 277 14 126 101 64 63 76 102 75 50 81 135
129 139 106 120 147 218 289 281 255 254 234 213 194 192 196 192 189 187 185 184 183 183 178 173 175 181 182 176 178 180 180 185 187 176 187 205 255 61 89 69 73 75 71 79 93 86 61 73 50
109 98 105 115 148 154 218 266 231 220 212 203 207 200 194 191 192 188 184 179 174 171 170 172 175 174 174 177 171 167 173 175 171 177 200 198 155 109 124 118 97 88 82 84 96 90 84 82 57
158 162 147 150 191 170 175 259 268 223 215 201 205 201 193 188 182 176 170 165 169 175 173 172 175 178 180 173 166 172 175 166 164 173 195 175 139 119 122 116 103 94 85 84 99 102 93 94 83
Height
1496 1496 1497 1500 1504 1518 1525 1519 1514 1515 1517 1517 1517 1518 1520 1524 1528 1533 1530 1529 1530 1530 1531 1531 1532 1532 1532 1532 1533 1533 1533 1533 1533 1533 1533 1534 1534 1534 1535 1535 1536 1537 1538 1539 1540 1541 1542 1543 1545
1497 1498 1500 1502 1516 1534 1530 1520 1518 1517 1518 1518 1519 1520 1522 1525 1527 1528 1529 1530 1531 1532 1533 1533 1534 1534 1535 1535 1535 1535 1535 1535 1536 1536 1536 1537 1537 1537 1538 1538 1539 1540 1541 1542 1543 1544 1545 1546 1547
1498 1499 1502 1507 1522 1532 1528 1520 1519 1519 1519 1520 1521 1523 1525 1528 1529 1530 1531 1532 1533 1534 1535 1535 1536 1537 1537 1537 1537 1537 1538 1538 1538 1538 1539 1539 1540 1540 1541 1542 1542 1543 1544 1545 1546 1547 1548 1549 1550
1500 1502 1504 1515 1524 1522 1520 1520 1519 1519 1521 1522 1523 1526 1529 1531 1531 1532 1533 1534 1535 1536 1537 1537 1538 1539 1539 1539 1539 1540 1540 1540 1541 1541 1541 1542 1543 1543 1544 1544 1545 1546 1547 1548 1548 1549 1551 1551 1552
1501 1503 1514 1525 1524 1520 1519 1520 1520 1521 1523 1525 1525 1529 1532 1534 1534 1534 1535 1536 1537 1538 1538 1539 1540 1541 1541 1542 1542 1542 1542 1543 1543 1543 1544 1544 1545 1546 1546 1547 1547 1548 1549 1550 1551 1552 1553 1554 1555
1502 1505 1526 1533 1526 1521 1521 1522 1522 1523 1526 1527 1529 1531 1534 1536 1536 1536 1537 1538 1539 1540 1541 1541 1542 1543 1543 1543 1544 1544 1544 1545 1545 1546 1546 1547 1547 1548 1549 1549 1550 1551 1551 1552 1553 1554 1555 1556 1557
1504 1512 1525 1527 1527 1525 1524 1524 1524 1525 1527 1529 1530 1533 1535 1537 1538 1539 1539 1540 1541 1542 1543 1543 1544 1545 1545 1546 1546 1546 1546 1547 1547 1548 1548 1549 1550 1550 1551 1551 1552 1553 1553 1554 1555 1556 1557 1558 1559
1504 1512 1523 1526 1527 1526 1524 1525 1526 1527 1529 1530 1531 1533 1536 1538 1539 1540 1541 1542 1543 1544 1545 1545 1546 1547 1547 1547 1548 1548 1549 1549 1549 1550 1550 1551 1552 1552 1553 1554 1554 1555 1556 1556 1557 1558 1559 1560 1561
1505 1517 1527 1524 1524 1524 1523 1525 1528 1528 1529 1531 1532 1533 1536 1538 1540 1542 1543 1544 1545 1545 1546 1547 1548 1548 1549 1549 1550 1550 1550 1551 1552 1552 1552 1553 1554 1554 1555 1556 1556 1557 1558 1558 1559 1560 1561 1562 1562
1505 1521 1519 1515 1517 1520 1523 1525 1527 1529 1531 1532 1533 1535 1537 1539 1541 1543 1544 1545 1546 1547 1548 1548 1549 1550 1550 1551 1551 1552 1552 1553 1553 1554 1554 1555 1556 1556 1557 1557 1558 1559 1560 1560 1561 1562 1563 1563 1564
1507 1513 1512 1514 1516 1519 1523 1527 1528 1530 1532 1532 1533 1535 1538 1540 1542 1544 1545 1546 1547 1548 1549 1550 1550 1551 1552 1552 1553 1553 1554 1554 1555 1555 1556 1557 1557 1558 1558 1559 1559 1560 1561 1562 1562 1563 1564 1565 1565
1508 1511 1512 1515 1517 1521 1524 1527 1529 1530 1531 1532 1534 1536 1538 1541 1543 1545 1546 1547 1548 1549 1550 1551 1551 1552 1553 1553 1554 1555 1555 1556 1556 1557 1557 1558 1559 1559 1560 1560 1561 1562 1562 1563 1564 1565 1565 1566 1566
1510 1513 1515 1517 1519 1523 1526 1528 1530 1531 1532 1533 1535 1538 1540 1542 1544 1546 1547 1549 1549 1550 1551 1552 1552 1553 1554 1554 1555 1556 1556 1557 1557 1558 1558 1559 1560 1560 1561 1561 1562 1563 1563 1564 1565 1565 1566 1567 1567
1512 1515 1518 1521 1523 1526 1528 1531 1532 1533 1533 1535 1537 1539 1541 1542 1544 1546 1548 1549 1549 1551 1552 1552 1553 1553 1554 1555 1555 1556 1557 1557 1557 1558 1559 1559 1560 1561 1561 1562 1562 1563 1564 1565 1565 1566 1566 1567 1567
1513 1519 1524 1525 1525 1528 1530 1535 1533 1532 1534 1536 1538 1540 1541 1543 1545 1546 1547 1549 1550 1551 1552 1552 1553 1554 1554 1555 1556 1556 1557 1557 1558 1558 1559 1559 1560 1561 1561 1562 1563 1564 1564 1565 1565 1566 1566 1567 1567
1517 1527 1534 1528 1527 1528 1534 1541 1533 1533 1535 1537 1539 1540 1542 1543 1545 1546 1548 1549 1550 1551 1551 1552 1553 1554 1554 1555 1556 1556 1557 1557 1558 1558 1559 1559 1560 1560 1561 1562 1563 1563 1564 1565 1565 1566 1566 1567 1567
1528 1537 1536 1531 1526 1528 1532 1537 1532 1533 1535 1537 1539 1540 1542 1543 1545 1546 1548 1549 1550 1551 1551 1552 1553 1553 1554 1555 1556 1556 1557 1557 1557 1558 1558 1559 1560 1560 1561 1561 1562 1563 1563 1564 1565 1565 1566 1566 1567
1535 1535 1534 1533 1527 1528 1532 1534 1531 1533 1535 1537 1538 1540 1541 1542 1544 1546 1547 1549 1550 1551 1551 1552 1553 1553 1554 1554 1555 1556 1556 1556 1557 1557 1558 1558 1559 1559 1560 1561 1561 1562 1563 1563 1564 1564 1565 1565 1566
1522 1528 1532 1529 1524 1529 1533 1534 1532 1533 1535 1536 1537 1539 1540 1541 1544 1545 1546 1548 1550 1551 1551 1551 1552 1553 1553 1554 1555 1555 1555 1556 1556 1557 1557 1557 1558 1558 1559 1560 1560 1561 1561 1562 1563 1563 1563 1564 1564
1520 1527 1530 1528 1524 1529 1534 1534 1531 1531 1532 1532 1534 1535 1537 1539 1542 1543 1545 1547 1549 1550 1550 1551 1551 1552 1553 1554 1554 1555 1555 1555 1556 1556 1556 1557 1557 1558 1558 1558 1559 1559 1560 1561 1561 1562 1562 1562 1563
1520 1525 1527 1530 1529 1530 1535 1538 1533 1529 1529 1530 1531 1533 1535 1536 1538 1541 1543 1545 1547 1548 1550 1550 1551 1552 1552 1553 1554 1554 1554 1555 1555 1556 1556 1556 1556 1556 1557 1557 1558 1558 1558 1559 1560 1560 1560 1561 1561
1524 1515 1519 1526 1536 1546 1540 1554 1536 1530 1529 1527 1528 1529 1531 1533 1535 1538 1541 1543 1545 1547 1549 1550 1551 1551 1552 1552 1553 1553 1554 1554 1555 1555 1555 1555 1555 1556 1556 1556 1556 1556 1557 1557 1558 1558 1559 1559 1559
1516 1514 1521 1529 1540 1548 1546 1553 1543 1531 1530 1525 1524 1525 1527 1530 1533 1535 1538 1541 1543 1546 1547 1549 1550 1550 1551 1552 1552 1553 1553 1554 1554 1554 1555 1555 1555 1555 1555 1555 1555 1555 1555 1556 1556 1556 1557 1557 1557
1513 1521 1529 1538 1546 1559 1550 1554 1548 1534 1526 1520 1519 1521 1524 1527 1530 1533 1536 1539 1542 1544 1546 1547 1549 1549 1550 1551 1552 1552 1553 1553 1554 1554 1554 1554 1554 1554 1554 1554 1554 1554 1554 1554 1554 1554 1554 1555 1555
1516 1535 1557 1560 1568 1564 1549 1551 1544 1521 1517 1516 1516 1518 1521 1524 1527 1530 1533 1536 1539 1542 1544 1546 1547 1548 1549 1550 1551 1552 1552 1552 1553 1553 1553 1553 1553 1553 1552 1552 1552 1552 1552 1552 1552 1552 1552 1552 1552
1518 1529 1555 1567 1569 1563 1552 1551 1531 1515 1512 1512 1513 1516 1519 1522 1525 1528 1531 1534 1537 1540 1542 1544 1546 1547 1548 1549 1550 1551 1551 1552 1552 1552 1552 1552 1552 1551 1551 1551 1551 1551 1551 1551 1551 1550 1550 1550 1550
1519 1528 1531 1551 1558 1563 1556 1543 1524 1513 1511 1511 1512 1515 1517 1520 1523 1526 1529 1532 1535 1538 1541 1543 1545 1546 1547 1548 1549 1550 1550 1551 1551 1551 1551 1551 1551 1550 1550 1550 1549 1549 1549 1549 1549 1548 1548 1548 1548
1510 1522 1538 1551 1566 1567 1554 1546 1536 1518 1514 1512 1512 1513 1515 1519 1522 1524 1528 1531 1534 1537 1539 1541 1543 1545 1547 1548 1548 1549 1550 1550 1550 1550 1550 1550 1550 1550 1549 1549 1548 1548 1548 1548 1547 1547 1547 1546 1546
1517 1524 1535 1548 1550 1563 1564 1548 1514 1511 1508 1509 1509 1510 1513 1516 1519 1523 1526 1529 1533 1536 1538 1540 1542 1543 1545 1547 1548 1548 1549 1549 1550 1550 1549 1549 1549 1549 1548 1548 1548 1547 1547 1547 1546 1546 1545 1545 1545
1505 1516 1528 1541 1548 1553 1555 1542 1503 1504 1503 1505 1506 1509 1512 1515 1518 1522 1525 1528 1531 1534 1536 1538 1540 1542 1544 1546 1547 1548 1548 1548 1549 1549 1549 1548 1548 1548 1548 1547 1547 1547 1546 1546 1545 1545 1545 1544 1544